Regional Weather Roundup
Issued by NWS

Home | Current Version | Previous Version | Text Only | Print | Product List | Glossary Off
Versions: 1 2 3 4 5 6 7 8 9 10 11 12 13 14 15 16 17 18 19 20 21 22 23 24 25 26 27 28 29 30 31 32 33 34 35 36 37 38 39 40 41 42 43 44 45 46 47 48 49 50

000
ASUS43 KOAX 220910
RWRNE

WEATHER ROUNDUP FOR NEBRASKA
NATIONAL WEATHER SERVICE OMAHA NE
400 AM CDT WED MAR 22 2017

NOTES: SATELLITE DATA IS BEING USED TO AUGMENT CLOUD COVER ABOVE
       12000 FEET.
       "FAIR" INDICATES FEW OR NO CLOUDS BELOW 12,000 FEET WITH NO
       SIGNIFICANT WEATHER AND/OR OBSTRUCTIONS TO VISIBILITY.

  * THESE STATIONS DO NOT REPORT WEATHER SUCH AS RAIN...SNOW OR FOG.

NEZ001>004-019>022-054>056-221000-
NEBRASKA PANHANDLE

CITY           SKY/WX    TMP DP  RH WIND       PRES   REMARKS
SCOTTSBLUFF    CLEAR     37  30  75 SE14      30.13F WCI  28
ALLIANCE       CLOUDY    35  31  85 S24G31    30.13F WCI  23
CHADRON        CLOUDY    40  32  73 S17G25    30.09F WCI  31
KIMBALL        CLOUDY    35  28  77 S17       30.13F WCI  25
SIDNEY         PTCLDY    34  30  85 S20       30.16F WCI  23
$$

NEZ057>060-069>072-079>082-221000-
SOUTHWEST NEBRASKA

CITY           SKY/WX    TMP DP  RH WIND       PRES   REMARKS
NORTH PLATTE   CLOUDY    31  24  75 E7        30.29F WCI  24
IMPERIAL       CLOUDY    36  27  69 SE22      30.25F WCI  25
LEXINGTON      MOCLDY    35  25  67 SE6       30.32R WCI  30
MCCOOK         CLOUDY    35  24  64 E8        30.31F WCI  29
OGALLALA       CLOUDY    37  32  80 SE10G17   30.24F WCI  30
$$

NEZ005>010-023>029-035>040-094-221000-
NORTH CENTRAL NEBRASKA

CITY           SKY/WX    TMP DP  RH WIND       PRES   REMARKS
VALENTINE      MIX PCPN  32  27  81 SE16      30.27F WCI  21
AINSWORTH      MIX PCPN  32  30  93 SE16      30.29F WCI  21
BROKEN BOW     CLOUDY    33  28  81 SE7       30.32R WCI  27
O`NEILL        CLOUDY    32  28  84 E13       30.34F WCI  22
ORD            CLOUDY    35  23  61 E12       30.33  WCI  27
THEDFORD       PTCLDY    32  25  76 SE5       30.29F WCI  27
$$

NEZ041-046>049-061>064-073>077-083>087-221000-
SOUTH CENTRAL NEBRASKA

CITY           SKY/WX    TMP DP  RH WIND       PRES   REMARKS
GRAND ISLAND   CLOUDY    36  26  67 E10       30.36F WCI  28
AURORA         CLOUDY    36  25  63 E13       30.35F WCI  27
HASTINGS       CLOUDY    36  24  62 E9        30.36S WCI  29
HEBRON         CLOUDY    36  25  65 NE8       30.37F WCI  29
HOLDREGE       MOCLDY    34  23  63 E14       30.30F WCI  25
KEARNEY *      PTCLDY    36  23  60 E13       30.33F WCI  27
YORK           CLOUDY    36  27  69 E9        30.37F WCI  29
$$

NEZ011>018-030>034-042>045-221000-
NORTHEAST NEBRASKA

CITY           SKY/WX    TMP DP  RH WIND       PRES   REMARKS
NORFOLK        CLOUDY    31  21  66 E10       30.40F WCI  22
ALBION         CLOUDY    34  23  62 E9        30.37F WCI  27
BLAIR          CLOUDY    34  21  58 NE12      30.41F WCI  25
FREMONT        CLOUDY    35  22  61 E8        30.42F WCI  28
TEKAMAH        CLOUDY    33  21  61 NE12      30.45F WCI  24
WAYNE          CLOUDY    31  23  71 E10       30.43F WCI  23
$$

NEZ050>053-065>068-078-088>093-221000-
SOUTHEAST NEBRASKA

CITY           SKY/WX    TMP DP  RH WIND       PRES   REMARKS
LINCOLN        CLOUDY    37  25  61 NE12      30.41F WCI  29
OMAHA EPPLEY   CLOUDY    35  19  52 NE8       30.43F WCI  29
BEATRICE       CLOUDY    36  26  67 E7        30.38F WCI  30
FALLS CITY     PTCLDY    37  24  59 NE8       30.38S WCI  31
NEBRASKA CITY  CLOUDY    35  19  52 E13       30.39F WCI  27
PLATTSMOUTH    CLOUDY    35  19  52 NE12      30.40F WCI  27
$$

NEZ044-045-051>053-067-221000-
OMAHA AREA

CITY           SKY/WX    TMP DP  RH WIND       PRES   REMARKS
OMAHA EPPLEY   CLOUDY    35  19  52 NE8       30.43F WCI  29
BLAIR          CLOUDY    34  21  58 NE12      30.41F WCI  25
FREMONT        CLOUDY    35  22  61 E8        30.42F WCI  28
MILLARD        CLOUDY    37  22  54 E9        30.42F WCI  31
OFFUTT AFB     CLOUDY    35  19  52 NE10      30.42F WCI  27
PLATTSMOUTH    CLOUDY    35  19  52 NE12      30.40F WCI  27
WAHOO          CLOUDY    35  21  55 E14       30.40F WCI  26
$$




USA.gov is the U.S. government's official web portal to all federal, state and local government web resources and services.